Tracking 19176 objects as of 27-May-2018
HD Live streaming from Space Station
objects crossing your sky now

FENGYUN 1C DEB

Track FENGYUN 1C DEB now!
10-day predictions


NORAD ID: 30068
Int'l Code: 1999-025PV
Perigee: 726.0 km
Apogee: 1,005.2 km
Inclination: 98.8 °
Period: 102.1 minutes
Semi major axis: 7236 km
RCS: 0.0703 m2 (small)
Launch date: May 10, 1999
Source: People's Republic of China (PRC)
Launch site: Taiyaun Space Center, China (TSC)

Note: This is SATELLITE DEBRIS
aabbcc
Your satellite tracking list
Your tracking list is empty




NASA's NSSDC Master Catalog

Two Line Element Set (TLE):
1 30068U 99025PV  18146.63040077 +.00000014 +00000-0 +27808-4 0  9993
2 30068 098.7907 178.0535 0192960 255.7747 102.1923 14.10267989584699
Source of the keplerian elements: AFSPC